Weather History for KHKA - January, 2013

Change the Weather History Date:

Thursday, January 31, 2013

  Actual Average Record
Temperature  
Mean Temperature 40 °F -  
Max Temperature 51 °F 50 °F 73 °F (2002)
Min Temperature 30 °F 31 °F 4 °F (1936)
Degree Days  
Heating Degree Days 24    
Moisture  
Dew Point 26 °F    
Average Humidity 65    
Maximum Humidity 73    
Minimum Humidity 46    
Precipitation  
Precipitation 0.00 in - - ()
Sea Level Pressure  
Sea Level Pressure 30.13 in    
Wind  
Wind Speed 13 mph (West)    
Max Wind Speed 25 mph    
Max Gust Speed 36 mph    
Visibility 10 miles    
Events      
Averages and records for this station are not official NWS values.
T = Trace of Precipitation, MM = Missing Value Source: NWS Daily Summary

Daily Weather History Graph

Daily Weather History Graph

Search for Another Location

Airport or City:

Trip Planner

Search our weather history database for the weather conditions in past years. The results will help you decide how hot, cold, wet, or windy it might be!

Date:

Astronomy

Jan. 31, 2013 Rise Set
Actual Time 7:00 AM CST 5:25 PM CST
Civil Twilight 6:33 AM CST 5:52 PM CST
Nautical Twilight 6:02 AM CST 6:23 PM CST
Astronomical Twilight 5:32 AM CST 6:53 PM CST
Moon 10:16 PM CST (1/31) 9:10 AM CST (1/31)
Length of Visible Light 11h 19m
Length of Day
10h 25m
Waning Gibbous, 79% of the Moon is Illuminated
Jan 31
Waning Gibbous
Feb 3
Last Quarter
Feb 10
New
Feb 17
First Quarter
Feb 25
Full

Hourly Weather History & Observations

Time (CST) Temp. Windchill Dew Point Humidity Pressure Visibility Wind Dir Wind Speed Gust Speed Precip Events Conditions
12:53 AM 32.0 °F 22.1 °F 24.1 °F 73% 30.04 in 10.0 mi WNW 13.8 mph - N/A   Mostly Cloudy
1:53 AM 30.9 °F 21.7 °F 23.0 °F 72% 30.03 in 10.0 mi WNW 11.5 mph - N/A   Clear
2:53 AM 30.9 °F 22.8 °F 23.0 °F 72% 30.05 in 10.0 mi West 9.2 mph - N/A   Clear
3:53 AM 30.9 °F 21.7 °F 23.0 °F 72% 30.05 in 10.0 mi West 11.5 mph - N/A   Clear
4:53 AM 30.0 °F 20.0 °F 21.9 °F 72% 30.06 in 10.0 mi WNW 12.7 mph - N/A   Clear
5:53 AM 30.0 °F 21.1 °F 21.9 °F 72% 30.09 in 10.0 mi West 10.4 mph - N/A   Clear
6:53 AM 30.0 °F 24.1 °F 21.9 °F 72% 30.12 in 10.0 mi WSW 5.8 mph - N/A   Clear
7:53 AM 30.9 °F 22.8 °F 23.0 °F 72% 30.15 in 10.0 mi WSW 9.2 mph - N/A   Clear
9:53 AM 35.1 °F 25.9 °F 24.1 °F 64% 30.17 in 10.0 mi WSW 13.8 mph - N/A   Clear
10:53 AM 37.9 °F 30.9 °F 27.0 °F 65% 30.18 in 10.0 mi SW 10.4 mph 18.4 mph N/A   Clear
11:53 AM 39.0 °F 31.4 °F 27.0 °F 62% 30.14 in 10.0 mi SW 12.7 mph - N/A   Clear
12:53 PM 43.0 °F 36.0 °F 28.0 °F 56% 30.09 in 10.0 mi SSW 13.8 mph - N/A   Clear
1:53 PM 46.0 °F 39.3 °F 33.1 °F 61% 30.06 in 10.0 mi SSW 16.1 mph 21.9 mph N/A   Clear
2:53 PM 48.9 °F - 35.1 °F 59% 30.06 in 10.0 mi WSW 13.8 mph - N/A   Clear
3:53 PM 51.1 °F - 30.9 °F 46% 30.07 in 10.0 mi West 17.3 mph 21.9 mph N/A   Clear
4:53 PM 48.9 °F - 33.1 °F 54% 30.09 in 10.0 mi West 8.1 mph - N/A   Unknown
5:53 PM 46.0 °F 43.1 °F 36.0 °F 68% 30.11 in 10.0 mi WNW 5.8 mph - N/A   Overcast
6:53 PM 42.1 °F 32.1 °F 33.1 °F 70% 30.17 in 10.0 mi North 25.3 mph 35.7 mph N/A   Overcast
8:53 PM 35.1 °F 23.0 °F 24.1 °F 64% 30.27 in 10.0 mi NNW 24.2 mph 29.9 mph 0.00 in   Overcast
9:53 PM 33.1 °F 21.2 °F 21.9 °F 64% 30.32 in 10.0 mi NW 20.7 mph 27.6 mph 0.00 in   Overcast
10:53 PM 30.0 °F 17.5 °F 18.0 °F 61% 30.35 in 10.0 mi NNW 19.6 mph 24.2 mph N/A   Clear